San Angelo, TX

10:24 AM CDT on April 23, 2018 (GMT -0500)
San Angelo Regional-Mathis

Weather History for KSJT - April, 2013

Change the Weather History Date:

Sunday, April 7, 2013

  Actual Average Record
Temperature  
Mean Temperature 76 °F 64 °F  
Max Temperature 93 °F 78 °F 97 °F (2000)
Min Temperature 59 °F 49 °F 26 °F (2009)
Degree Days  
Heating Degree Days 0 4  
Month to date heating degree days 37 32  
Since 1 July heating degree days 1826 2250  
Cooling Degree Days 11 3  
Month to date cooling degree days 23 16  
Year to date cooling degree days 98 54  
Growing Degree Days 26 (Base 50)    
Moisture  
Dew Point 52 °F    
Average Humidity 52    
Maximum Humidity 90    
Minimum Humidity 14    
Precipitation  
Precipitation 0.00 in 0.04 in 0.90 in (1912)
Month to date precipitation 0.55 0.30  
Year to date precipitation 2.38 4.08  
Snow  
Snow 0.00 in 0.00 in 2.00 in (1938)
Month to date snowfall 0.0 0.0  
Since 1 July snowfall 2.8 2.2  
Snow Depth 0.00 in    
Sea Level Pressure  
Sea Level Pressure 29.72 in    
Wind  
Wind Speed 12 mph (SSW)    
Max Wind Speed 21 mph    
Max Gust Speed 25 mph    
Visibility 10 miles    
Events      
T = Trace of Precipitation, MM = Missing Value Source: NWS Daily Summary

Daily Weather History Graph

Daily Weather History Graph

Search for Another Location

Airport or City:

Astronomy

Apr. 07, 2013 Rise Set
Actual Time 7:22 AM CDT 8:05 PM CDT
Civil Twilight 6:58 AM CDT 8:30 PM CDT
Nautical Twilight 6:29 AM CDT 8:59 PM CDT
Astronomical Twilight 5:59 AM CDT 9:28 PM CDT
Moon 5:31 AM CDT (4/7) 5:47 PM CDT (4/7)
Length of Visible Light 13h 31m
Length of Day
12h 42m
Waning Crescent, 8% of the Moon is Illuminated
Apr 7
Waning Crescent
Apr 10
New
Apr 18
First Quarter
Apr 25
Full
May 2
Last Quarter

Hourly Weather History & Observations

Time (CDT) Temp. Heat Index Dew Point Humidity Pressure Visibility Wind Dir Wind Speed Gust Speed Precip Events Conditions
12:51 AM 66.9 °F - 55.9 °F 68% 29.80 in 10.0 mi South 12.7 mph - N/A   Clear
1:51 AM 64.9 °F - 55.9 °F 73% 29.78 in 10.0 mi South 8.1 mph - N/A   Clear
2:51 AM 62.1 °F - 55.0 °F 78% 29.77 in 10.0 mi South 5.8 mph - N/A   Clear
3:51 AM 62.1 °F - 55.0 °F 78% 29.75 in 10.0 mi South 8.1 mph - N/A   Clear
4:51 AM 61.0 °F - 55.0 °F 81% 29.75 in 10.0 mi South 6.9 mph - N/A   Clear
5:51 AM 60.1 °F - 55.0 °F 83% 29.76 in 10.0 mi Calm Calm - N/A   Clear
6:51 AM 62.1 °F - 57.0 °F 84% 29.77 in 10.0 mi South 10.4 mph - N/A   Clear
7:51 AM 61.0 °F - 57.0 °F 87% 29.78 in 10.0 mi South 12.7 mph 19.6 mph N/A   Clear
8:51 AM 64.0 °F - 57.9 °F 80% 29.80 in 10.0 mi SSW 17.3 mph - N/A   Clear
9:51 AM 68.0 °F - 59.0 °F 73% 29.80 in 10.0 mi South 15.0 mph - N/A   Clear
10:51 AM 72.0 °F - 59.0 °F 64% 29.80 in 10.0 mi SSW 19.6 mph 25.3 mph N/A   Clear
11:51 AM 77.0 °F - 57.9 °F 52% 29.79 in 10.0 mi SSW 13.8 mph - N/A   Clear
12:51 PM 82.9 °F 82.1 °F 55.9 °F 39% 29.76 in 10.0 mi SSW 17.3 mph 23.0 mph N/A   Clear
1:51 PM 87.1 °F - 52.0 °F 30% 29.72 in 10.0 mi SSW 15.0 mph - N/A   Clear
2:51 PM 90.0 °F - 48.0 °F 24% 29.68 in 10.0 mi SSW 9.2 mph 18.4 mph N/A   Clear
3:51 PM 91.9 °F - 39.0 °F 16% 29.64 in 10.0 mi SSW 11.5 mph 18.4 mph N/A   Clear
4:51 PM 91.9 °F - 36.0 °F 14% 29.62 in 10.0 mi WSW 10.4 mph 19.6 mph N/A   Clear
5:51 PM 91.0 °F - 39.9 °F 17% 29.61 in 10.0 mi South 10.4 mph 20.7 mph N/A   Clear
6:51 PM 89.1 °F - 41.0 °F 19% 29.60 in 10.0 mi South 17.3 mph 23.0 mph N/A   Clear
7:51 PM 86.0 °F - 45.0 °F 24% 29.61 in 10.0 mi South 11.5 mph - N/A   Clear
8:51 PM 82.0 °F - 48.9 °F 31% 29.62 in 10.0 mi South 13.8 mph 21.9 mph N/A   Clear
10:51 PM 77.0 °F - 55.9 °F 48% 29.65 in 10.0 mi South 15.0 mph - N/A   Clear
11:51 PM 75.0 °F - 59.0 °F 57% 29.65 in 10.0 mi South 15.0 mph 20.7 mph N/A   Clear